This demonstration page uses our WeatherBlox Daily Observations layout. Learn more.

Left ArrowRight Arrow

Hourly Observations for March 27, 2020

Temp ( °F °C ) Dew Point ( °F °C ) Humidity (%) Winds ( mph kmh ) Pressure ( in mb ) Visibility ( mi km ) Precip ( " mm )
12:56 am 00:56 Cloudy 49 9.2 43 5.9 80 80 NE 14 22 29.76 1008 10 16 0.00 0.00
1:56 am 01:56 Cloudy 47 8.6 42 5.5 81 81 NE 13 20 29.75 1008 10 16 0.00 0.00
2:41 am 02:41 Cloudy 48 9 43 6 82 82 NE 10 17 29.77 1008 10 16 0.00 0.00
2:56 am 02:56 Cloudy 47 8.6 42 5.7 82 82 NE 7 11 29.78 1008 10 16 0.00 0.00
3:56 am 03:56 Cloudy 47 8.5 42 5.6 82 82 ENE 9 15 29.78 1008 10 16 0.00 0.00
4:11 am 04:11 Cloudy 48 9 43 6 82 82 NE 10 17 29.76 1008 10 16 0.00 0.00
4:17 am 04:17 Cloudy 46 8 43 6 87 87 ENE 7 11 29.75 1008 10 16 0.00 0.00
4:56 am 04:56 Cloudy 47 8.3 43 5.9 85 85 NE 9 15 29.75 1008 10 16 0.00 0.00
5:26 am 05:26 Cloudy 46 8 43 6 87 87 ENE 9 15 29.74 1007 10 16 0.00 0.00
5:56 am 05:56 Cloudy 47 8.3 44 6.4 88 88 ENE 9 15 29.74 1007 10 16 0.00 0.00
6:26 am 06:26 Cloudy 46 8 45 7 93 93 ENE 10 17 29.75 1007 10 16 0.00 0.00
6:56 am 06:56 Cloudy 47 8.1 44 6.7 91 91 ENE 9 15 29.74 1007 10 16 0.00 0.00
7:11 am 07:11 Cloudy 46 8 45 7 93 93 NE 10 17 29.74 1007 9 14 0.00 0.00
7:56 am 07:56 Cloudy 47 8.3 44 6.9 91 91 NE 7 11 29.77 1008 8 13 0.00 0.00
8:41 am 08:41 Cloudy with Mist and Fog 46 8 45 7 93 93 ENE 6 9 29.76 1008 4 6 0.00 0.00
8:56 am 08:56 Cloudy with Mist and Fog 47 8.1 45 7 93 93 ENE 8 13 29.76 1008 4 6 0.00 0.00
9:56 am 09:56 Cloudy with Mist and Fog 47 8.2 45 7 92 92 ENE 10 17 29.74 1007 5 8 0.00 0.00
10:26 am 10:26 Cloudy with Mist and Fog 46 8 45 7 93 93 ENE 9 15 29.76 1008 7 11 0.00 0.00
10:56 am 10:56 Cloudy 47 8.6 45 7.1 90 90 ENE 7 11 29.77 1008 8 13 0.00 0.00
11:41 am 11:41 Cloudy 48 9 45 7 87 87 E 9 15 29.76 1008 9 14 0.00 0.00
11:56 am 11:56 Cloudy 48 9.1 45 7.2 88 88 ENE 6 9 29.78 1009 9 14 0.00 0.00
12:26 pm 12:26 Cloudy 48 9 45 7 87 87 NE 6 9 29.76 1008 10 16 0.00 0.00
12:56 pm 12:56 Cloudy 49 9.2 45 7.1 87 87 Calm 29.78 1009 10 16 0.00 0.00
1:11 pm 13:11 Cloudy 48 9 45 7 87 87 ENE 9 15 29.73 1007 10 16 0.00 0.00
1:56 pm 13:56 Cloudy 50 9.8 45 7.2 84 84 NE 6 9 29.73 1007 10 16 0.00 0.00
2:56 pm 14:56 Cloudy 49 9.5 45 7.4 87 87 NE 6 9 29.70 1006 10 16 0.00 0.00
3:11 pm 15:11 Cloudy with Mist and Fog 48 9 46 8 94 94 NE 3 6 29.71 1006 5 8 0.00 0.00
3:35 pm 15:35 Cloudy with Mist and Fog 48 9 46 8 94 94 ENE 5 7 29.70 1006 3 4 0.00 0.00
3:56 pm 15:56 Cloudy with Mist and Fog 49 9.4 47 8.2 92 92 NE 8 13 29.67 1005 3 5 0.00 0.00
4:41 pm 16:41 Cloudy with Mist and Fog 48 9 46 8 94 94 NE 5 7 29.68 1005 4 6 0.00 0.00
4:56 pm 16:56 Cloudy 49 9.5 46 7.6 88 88 Calm 29.70 1006 10 16 0.00 0.00
5:11 pm 17:11 Cloudy with Mist and Fog 50 10 46 8 88 88 N 6 9 29.66 1004 6 10 0.00 0.00
5:56 pm 17:56 Cloudy with Mist and Fog 49 9.4 46 7.7 89 89 NE 5 7 29.67 1005 6 10 0.00 0.00
6:56 pm 18:56 Cloudy with Mist and Fog 49 9.4 46 7.5 88 88 NE 3 6 29.68 1005 6 10 0.00 0.00
7:56 pm 19:56 Cloudy with Mist and Fog 48 9 46 7.6 91 91 NE 3 6 29.67 1005 6 10 0.00 0.00
8:56 pm 20:56 Cloudy with Mist and Fog 48 8.7 46 7.8 94 94 Calm 29.69 1005 6 10 0.00 0.00
9:26 pm 21:26 Cloudy with Mist and Fog 48 9 46 8 94 94 WNW 3 6 29.71 1006 5 8 0.00 0.00
9:56 pm 21:56 Cloudy with Mist and Fog 48 8.7 46 7.9 95 95 WNW 3 6 29.71 1006 6 10 0.00 0.00
10:56 pm 22:56 Cloudy with Mist and Fog 47 8.5 46 7.7 95 95 Calm 29.69 1005 4 6 0.00 0.00
11:11 pm 23:11 Cloudy with Mist and Fog 46 8 46 8 100 100 Calm 29.69 1006 5 8 0.00 0.00
11:26 pm 23:26 Cloudy with Light Rain 48 9 46 8 94 94 Calm 29.69 1005 6 10 0.00 0.00
11:41 pm 23:41 Cloudy with Light Rain 46 8 46 8 100 100 Calm 29.70 1006 4 6 0.00 0.00
11:56 pm 23:56 Cloudy with Drizzle 48 8.7 47 8.1 96 96 WSW 8 13 29.75 1008 5 8 0.00 0.00

Powered by AerisWeather